FW8133 Weather Reports


Display with metric or nautical units.
time (UTC)temp
F
wind
direction
speed
MPH
gust
MPH
rain 1hr
in
rain 24hr
in
rain mn
in
humidity
%
barometer
mb
20260504110543 45 222 2.0 4.0 0.00 0.00 0.00 70 1012.8
20260504100546 37 0 0.0 0.0 0.00 0.00 0.00 89 1012.4
20260504081551 36 0 0.0 0.0 0.00 0.00 0.00 90 1012.4
20260504081043 36 0 0.0 0.0 0.00 0.00 0.00 90 1012.4
20260504080543 36 0 0.0 0.0 0.00 0.00 0.00 90 1012.3
20260504050540 38 0 0.0 0.0 0.00 0.00 0.00 84 1012.2
20260504050120 39 0 0.0 0.0 0.00 0.00 0.00 83 1012.1
20260504045544 39 0 0.0 0.0 0.00 0.00 0.00 83 1012.1
20260504045044 39 0 0.0 0.0 0.00 0.00 0.00 83 1012.1
20260504044551 39 0 0.0 0.0 0.00 0.00 0.00 83 1012.0
20260504044042 40 0 0.0 0.0 0.00 0.00 0.00 83 1012.1
20260504043541 40 0 0.0 0.0 0.00 0.00 0.00 83 1012.1
20260504043057 40 0 0.0 0.0 0.00 0.00 0.00 82 1012.1
20260504042540 40 0 0.0 0.0 0.00 0.00 0.00 81 1012.0
20260504042044 40 0 0.0 0.0 0.00 0.00 0.00 81 1011.8
20260504041549 40 0 0.0 0.0 0.00 0.00 0.00 83 1011.7
20260504041043 40 0 0.0 0.0 0.00 0.00 0.00 83 1011.6
20260504040541 39 0 0.0 0.0 0.00 0.00 0.00 82 1011.7
20260504035543 39 0 0.0 0.0 0.00 0.00 0.00 83 1011.6
20260504035043 40 0 0.0 0.0 0.00 0.00 0.00 82 1011.6
20260504034553 40 0 0.0 0.0 0.00 0.00 0.00 82 1011.6
20260504034043 40 0 0.0 0.0 0.00 0.00 0.00 81 1011.6
20260504033541 40 0 0.0 0.0 0.00 0.00 0.00 81 1011.6
20260504033047 40 0 0.0 0.0 0.00 0.00 0.00 80 1011.5
20260504032542 40 0 0.0 0.0 0.00 0.00 0.00 80 1011.6
20260504032041 41 0 0.0 0.0 0.00 0.00 0.00 79 1011.6
20260504031610 41 0 0.0 0.0 0.00 0.00 0.00 80 1011.7
20260504031043 41 0 0.0 0.0 0.00 0.00 0.00 80 1011.6
20260504030541 40 0 0.0 0.0 0.00 0.00 0.00 80 1011.7
20260504030052 41 0 0.0 0.0 0.00 0.00 0.00 80 1011.7
20260504025544 41 0 0.0 0.0 0.00 0.00 0.00 79 1011.6
20260504025041 41 0 0.0 0.0 0.00 0.00 0.00 79 1011.6
20260504024553 41 0 0.0 0.0 0.00 0.00 0.00 79 1011.6
20260504024043 41 0 0.0 0.0 0.00 0.00 0.00 77 1011.8
20260504023540 42 0 0.0 0.0 0.00 0.00 0.00 77 1011.8
20260504023049 42 0 0.0 0.0 0.00 0.00 0.00 77 1011.7
20260504022547 42 0 0.0 0.0 0.00 0.00 0.00 76 1011.8
20260504022043 42 0 0.0 0.0 0.00 0.00 0.00 75 1011.7
20260504021552 42 0 0.0 0.0 0.00 0.00 0.00 74 1011.7
20260504021043 43 0 0.0 0.0 0.00 0.00 0.00 73 1011.6
20260504020542 43 0 0.0 0.0 0.00 0.00 0.00 72 1011.6
20260504020055 43 0 0.0 0.0 0.00 0.00 0.00 71 1011.7
20260504015543 44 0 0.0 0.0 0.00 0.00 0.00 72 1011.7
20260504015043 44 0 0.0 0.0 0.00 0.00 0.00 71 1011.7
20260504014553 45 0 0.0 0.0 0.00 0.00 0.00 67 1011.7
20260504014040 45 0 0.0 0.0 0.00 0.00 0.00 65 1011.6
20260504013544 46 0 0.0 0.0 0.00 0.00 0.00 62 1011.6
20260504013055 46 0 0.0 0.0 0.00 0.00 0.00 62 1011.6
20260504012544 46 0 0.0 0.0 0.00 0.00 0.00 63 1011.6
20260504012041 46 0 0.0 0.0 0.00 0.00 0.00 64 1011.6
20260504011553 47 0 0.0 0.0 0.00 0.00 0.00 63 1011.6
20260504011040 47 0 0.0 0.0 0.00 0.00 0.00 64 1011.5
20260504010540 48 0 0.0 0.0 0.00 0.00 0.00 61 1011.4
20260504010058 49 0 0.0 0.0 0.00 0.00 0.00 62 1011.4
20260504005544 50 0 0.0 0.0 0.00 0.00 0.00 60 1011.4
20260504005044 50 0 0.0 0.0 0.00 0.00 0.00 55 1011.3
20260504004554 51 0 0.0 0.0 0.00 0.00 0.00 54 1011.3
20260504004044 52 0 0.0 0.0 0.00 0.00 0.00 48 1011.1
20260504003541 53 0 0.0 0.0 0.00 0.00 0.00 47 1011.2
20260504003051 54 0 0.0 0.0 0.00 0.00 0.00 44 1011.2
20260504002544 54 0 0.0 0.0 0.00 0.00 0.00 44 1011.2
20260504002041 54 0 0.0 0.0 0.00 0.00 0.00 44 1011.1
20260504001607 54 0 0.0 0.0 0.00 0.00 0.00 46 1011.1
20260504001045 54 0 0.0 0.0 0.00 0.00 0.00 44 1010.9
20260504000544 55 0 0.0 0.0 0.00 0.00 0.00 41 1010.9
20260504000048 55 0 0.0 0.0 0.00 0.00 0.00 42 1010.8
20260503235544 55 0 0.0 4.0 0.00 0.00 0.00 40 1010.8
20260503235044 56 0 0.0 4.0 0.00 0.00 0.00 40 1010.7
20260503234549 56 295 1.0 6.0 0.00 0.00 0.00 40 1010.8
20260503234044 56 334 2.0 6.0 0.00 0.00 0.00 39 1010.6
20260503233542 57 269 2.0 7.0 0.00 0.00 0.00 38 1010.6
20260503233050 57 265 3.0 7.0 0.00 0.00 0.00 38 1010.4
20260503232543 57 314 3.0 6.0 0.00 0.00 0.00 38 1010.4
20260503232041 56 0 0.0 3.0 0.00 0.00 0.00 39 1010.3
20260503231551 57 0 0.0 3.0 0.00 0.00 0.00 38 1010.3
20260503231044 57 294 1.0 3.0 0.00 0.00 0.00 36 1010.2
20260503230548 57 294 1.0 4.0 0.00 0.00 0.00 36 1010.3
20260503230051 57 310 2.0 6.0 0.00 0.00 0.00 37 1010.3
20260503225543 57 265 2.0 6.0 0.00 0.00 0.00 36 1010.1
20260503225041 57 312 2.0 6.0 0.00 0.00 0.00 36 1010.2
20260503224551 57 321 2.0 6.0 0.00 0.00 0.00 37 1010.2
20260503224044 58 5 1.0 8.0 0.00 0.00 0.00 38 1010.1
20260503223541 58 282 3.0 8.0 0.00 0.00 0.00 35 1010.1
20260503223048 58 319 3.0 8.0 0.00 0.00 0.00 35 1010.1
20260503222544 58 233 2.0 9.0 0.00 0.00 0.00 35 1010.0
20260503222040 58 269 2.0 10.0 0.00 0.00 0.00 35 1009.9
20260503221550 58 309 2.0 10.0 0.00 0.00 0.00 35 1009.9
20260503221045 58 294 3.0 10.0 0.00 0.00 0.00 33 1009.9
20260503220540 58 313 2.0 8.0 0.00 0.00 0.00 32 1009.9
20260503220050 58 280 2.0 7.0 0.00 0.00 0.00 36 1009.9
20260503215544 58 288 2.0 10.0 0.00 0.00 0.00 35 1009.7
20260503215044 57 298 2.0 10.0 0.00 0.00 0.00 34 1009.8
20260503214555 57 296 2.0 8.0 0.00 0.00 0.00 34 1010.0
20260503214046 57 260 4.0 8.0 0.00 0.00 0.00 34 1009.7
20260503213544 57 262 3.0 8.0 0.00 0.00 0.00 34 1009.7
20260503213117 57 303 2.0 6.0 0.00 0.00 0.00 34 1009.6
20260503212545 58 266 2.0 9.0 0.00 0.00 0.00 34 1009.6
20260503212040 58 255 4.0 12.0 0.00 0.00 0.00 31 1009.6
20260503211617 58 236 3.0 12.0 0.00 0.00 0.00 31 1009.6
20260503211045 58 259 4.0 12.0 0.00 0.00 0.00 31 1009.5
20260503210543 58 273 3.0 12.0 0.00 0.00 0.00 31 1009.7
20260503210055 57 350 2.0 11.0 0.00 0.00 0.00 32 1009.8
20260503205541 57 312 5.0 11.0 0.00 0.00 0.00 31 1009.8
20260503205045 58 261 2.0 9.0 0.00 0.00 0.00 31 1009.7
20260503204603 58 264 3.0 10.0 0.00 0.00 0.00 31 1009.7
20260503204042 57 252 2.0 10.0 0.00 0.00 0.00 31 1009.7
20260503203545 57 288 4.0 12.0 0.00 0.00 0.00 31 1009.6
20260503203050 56 352 3.0 14.0 0.00 0.00 0.00 32 1009.9
20260503202541 57 239 5.0 14.0 0.00 0.00 0.00 31 1010.0
20260503202046 57 303 4.0 13.0 0.00 0.00 0.00 31 1010.0
20260503201553 56 258 5.0 11.0 0.00 0.00 0.00 31 1009.9
20260503201042 57 271 3.0 10.0 0.00 0.00 0.00 34 1009.8
20260503200541 57 324 4.0 10.0 0.00 0.00 0.00 35 1010.1
20260503200054 56 339 2.0 9.0 0.00 0.00 0.00 36 1009.9
20260503195544 57 315 3.0 9.0 0.00 0.00 0.00 32 1010.1
20260503195040 56 283 4.0 10.0 0.00 0.00 0.00 37 1010.1
20260503194548 56 328 5.0 10.0 0.00 0.00 0.00 34 1010.2
20260503194042 57 277 3.0 9.0 0.00 0.00 0.00 34 1010.2
20260503193542 57 283 4.0 12.0 0.00 0.00 0.00 35 1010.3
20260503193046 56 295 4.0 12.0 0.00 0.00 0.00 33 1010.4
20260503192543 57 333 3.0 9.0 0.00 0.00 0.00 33 1010.3
20260503192041 57 277 1.0 9.0 0.00 0.00 0.00 39 1010.4
20260503191601 56 279 3.0 9.0 0.00 0.00 0.00 35 1010.4
20260503191041 56 288 2.0 9.0 0.00 0.00 0.00 35 1010.6
20260503190542 56 244 2.0 11.0 0.00 0.00 0.00 37 1010.6
20260503190049 56 12 2.0 11.0 0.00 0.00 0.00 39 1010.6
20260503185541 55 263 3.0 9.0 0.00 0.00 0.00 36 1010.7
20260503185041 55 296 3.0 10.0 0.00 0.00 0.00 37 1010.8
20260503184605 56 270 4.0 10.0 0.00 0.00 0.00 35 1010.8
20260503184043 55 268 6.0 10.0 0.00 0.00 0.00 36 1010.8
20260503183544 55 298 3.0 10.0 0.00 0.00 0.00 36 1010.8
20260503183049 55 245 4.0 10.0 0.00 0.00 0.00 40 1011.0
20260503182541 55 310 4.0 11.0 0.00 0.00 0.00 36 1011.0
20260503182044 55 329 4.0 11.0 0.00 0.00 0.00 36 1011.1
20260503181551 55 276 5.0 11.0 0.00 0.00 0.00 37 1011.0
20260503181041 55 338 3.0 10.0 0.00 0.00 0.00 37 1011.0
20260503180542 54 287 4.0 10.0 0.00 0.00 0.00 38 1011.0
20260503180050 54 282 3.0 8.0 0.00 0.00 0.00 39 1011.0
20260503175544 53 265 3.0 8.0 0.00 0.00 0.00 39 1010.9
20260503175043 55 342 3.0 8.0 0.00 0.00 0.00 40 1011.0
20260503174603 53 296 3.0 8.0 0.00 0.00 0.00 40 1011.0
20260503174044 53 275 3.0 8.0 0.00 0.00 0.00 38 1011.2
20260503173544 53 281 2.0 8.0 0.00 0.00 0.00 44 1011.2
20260503173048 52 17 1.0 8.0 0.00 0.00 0.00 41 1011.3
20260503172540 53 284 3.0 11.0 0.00 0.00 0.00 41 1011.3
20260503172137 53 350 4.0 11.0 0.00 0.00 0.00 38 1011.4
20260503171554 53 350 0.0 10.0 0.00 0.00 0.00 43 1011.4
20260503171043 53 13 3.0 9.0 0.00 0.00 0.00 40 1011.5
20260503170541 53 352 3.0 9.0 0.00 0.00 0.00 43 1011.6
20260503150543 48 0 2.0 8.0 0.00 0.00 0.00 44 1012.0
20260503131045 46 285 2.0 8.0 0.00 0.00 0.00 57 1012.2
20260503130545 46 290 3.0 8.0 0.00 0.00 0.00 58 1012.2